Presure
111 132 129 131 112 120 120 119 127 137 132 136 159 142 160 139 124 118 125 124 154 158 151 119 140 125 142 154 145 173 155 169 177 180 176 175 181 184 167 178 166 137 173 156 184 184 180 178 184
136 122 111 117 144 114 137 143 125 142 156 129 175 125 140 122 103 128 140 162 152 153 153 153 151 145 150 166 168 162 168 168 171 164 175 177 179 169 160 163 166 169 165 162 186 178 163 184 182
132 131 135 135 142 153 140 141 116 121 102 150 166 115 123 104 107 140 150 154 148 149 150 143 151 155 165 154 152 116 156 160 159 152 180 181 177 179 169 172 174 170 184 155 165 179 162 179 186
126 137 105 130 121 135 134 132 153 136 116 112 116 115 113 142 149 136 151 158 151 154 131 158 162 153 157 150 165 160 155 166 157 159 179 182 164 178 181 181 177 173 184 151 181 171 186 161 199
130 135 132 133 126 140 96 134 140 108 104 93 138 102 95 110 126 144 152 147 136 141 159 153 165 168 159 149 172 162 163 161 164 170 190 179 173 194 182 167 157 157 184 174 173 199 164 153 140
138 143 131 134 137 137 118 104 95 120 110 116 117 145 127 99 90 139 137 125 143 154 161 163 124 147 172 167 143 165 162 154 162 173 169 179 178 175 179 175 183 182 178 179 165 137 184 153 190
135 133 136 123 120 92 116 140 88 143 156 115 84 155 111 142 142 139 148 143 155 145 159 161 165 161 158 166 165 163 167 182 185 186 167 163 165 155 177 155 153 161 160 185 172 112 156 141 185
139 141 122 128 146 147 85 110 92 135 103 117 147 115 124 136 150 139 147 145 152 150 153 156 140 166 173 166 162 169 181 160 176 168 170 166 151 152 207 167 173 170 153 173 167 184 129 183 154
138 91 91 88 113 106 132 126 109 145 152 92 116 107 138 141 146 147 149 148 143 143 151 134 168 181 162 162 143 177 172 168 165 169 153 175 194 177 179 158 164 166 160 187 173 153 166 177 177
135 133 90 110 85 143 118 142 110 99 125 117 134 130 143 144 137 135 138 141 144 149 156 156 155 152 172 155 163 155 160 154 184 172 181 222 190 155 189 177 192 167 177 152 150 160 153 161 165
124 135 140 115 94 131 103 125 114 140 132 101 113 114 141 148 150 154 131 140 145 149 156 156 163 171 163 183 166 166 171 170 168 178 187 223 196 178 174 177 154 163 195 186 135 176 183 179 158
133 98 134 90 104 111 110 141 93 136 137 124 123 109 149 145 139 149 143 156 148 122 142 165 157 162 171 172 166 165 169 176 168 204 216 225 178 195 180 174 171 181 160 195 170 226 111 117 131
138 113 120 104 110 95 115 127 137 97 110 109 113 133 128 144 146 139 147 150 153 152 168 169 177 175 162 157 164 167 158 171 192 192 194 206 191 201 188 182 174 171 212 183 200 183 182 146 161
117 123 111 115 95 115 109 124 108 136 152 116 140 117 136 149 140 146 146 151 149 148 152 171 167 165 176 168 169 158 165 174 194 175 196 181 199 180 171 201 180 182 250 232 183 163 161 174 180
134 88 132 125 117 140 133 123 101 102 101 99 104 141 147 139 146 150 159 154 157 152 147 160 152 174 157 171 168 160 171 171 181 189 180 206 200 174 177 180 266 262 242 230 183 193 168 179 182
134 104 100 144 108 105 110 109 109 96 119 102 141 143 148 139 145 150 157 161 164 148 154 173 171 167 175 162 160 170 169 174 181 185 191 193 179 174 147 199 181 265 233 207 208 193 185 185 166
137 145 114 139 116 114 149 145 109 138 125 130 133 137 145 154 150 149 142 155 162 158 155 164 171 180 162 170 162 170 172 174 177 191 211 194 177 171 199 167 219 269 277 223 235 201 186 191 182
92 145 117 131 146 105 101 121 122 120 108 140 138 135 145 150 158 160 156 150 157 161 169 158 180 159 163 168 162 164 168 180 174 187 205 118 190 79 179 263 198 283 244 268 232 213 192 189 197
121 141 136 142 146 145 103 102 105 141 142 153 148 149 141 139 150 156 145 155 157 176 170 175 161 166 163 164 165 163 174 171 173 189 207 167 176 179 184 194 244 266 238 235 199 245 222 200 197
148 134 133 131 124 140 117 109 124 127 127 140 140 142 154 159 154 157 154 154 153 165 170 166 166 162 162 160 166 171 169 164 186 204 200 183 176 175 173 243 235 222 229 189 203 208 176 217 197
133 94 111 146 136 114 128 113 117 111 124 147 143 156 142 152 161 157 158 160 161 174 176 168 162 155 159 165 173 167 170 185 190 198 188 187 171 172 173 199 213 207 207 200 199 194 189 196 173
134 135 126 135 104 143 131 123 149 149 140 134 137 157 158 160 167 169 163 163 160 164 172 168 160 161 164 171 170 177 174 185 205 201 190 178 175 171 243 244 229 205 194 208 202 203 196 192 192
119 146 143 133 151 115 128 161 66 136 136 143 150 101 155 170 171 160 165 159 164 162 171 163 164 166 168 168 177 173 176 189 206 200 189 177 169 163 213 248 207 199 193 220 201 193 232 248 217
131 126 154 145 114 137 148 144 117 139 160 164 162 161 163 166 165 171 165 167 162 169 173 173 169 168 167 171 168 178 182 199 179 194 164 179 167 164 203 196 209 207 195 209 225 217 230 239 251
148 113 144 121 155 110 124 135 154 151 144 142 164 162 160 166 167 175 169 162 169 170 170 163 167 167 164 169 170 192 187 183 191 179 186 185 188 172 207 207 215 233 223 199 228 235 236 242 242
159 111 112 131 117 150 117 156 150 145 161 159 162 165 167 174 163 163 170 171 169 177 170 171 170 166 162 170 175 190 183 182 202 186 184 179 185 204 209 202 243 235 215 215 232 234 244 244 279
146 163 163 161 114 126 149 153 157 164 173 177 170 177 176 172 166 171 168 177 169 169 173 167 164 167 169 174 195 185 184 190 189 176 173 189 196 202 211 202 235 218 216 235 235 239 240 250 251
153 145 130 140 155 173 160 166 162 185 188 185 173 174 170 171 183 178 174 170 171 169 158 163 164 172 177 187 191 192 177 194 185 181 187 199 201 205 224 213 233 212 219 235 237 242 253 244 256
134 165 159 152 162 175 164 172 192 202 200 194 189 178 182 174 183 177 178 170 169 168 165 168 173 173 197 189 183 181 169 191 183 188 193 194 206 199 206 217 210 209 226 242 248 240 251 257 255
187 176 166 185 187 159 199 191 194 186 194 191 188 185 181 182 171 175 171 171 173 175 176 173 183 195 182 193 172 171 193 186 187 197 191 202 201 192 216 211 235 222 237 156 242 249 253 256 258
Wind_Speed
28 28 31 34 26 33 32 30 35 37 37 37 39 38 39 39 37 40 39 43 47 49 50 41 50 50 50 60 46 53 57 57 56 52 54 51 52 49 50 49 47 52 47 47 43 43 44 42 41
30 34 31 37 34 31 35 37 39 41 38 35 32 36 41 35 33 45 49 50 51 55 58 55 60 53 59 62 60 60 57 57 56 57 57 53 50 52 55 54 53 49 49 46 44 48 42 36 37
33 33 30 31 36 33 34 37 32 24 28 36 39 37 38 36 37 48 52 55 56 55 60 58 66 59 64 63 62 51 61 63 61 61 51 50 53 49 57 56 53 55 46 47 47 49 40 33 36
40 33 36 36 38 35 35 39 37 34 30 34 31 30 43 44 45 48 54 53 52 55 48 59 58 62 63 62 59 58 61 59 62 63 50 44 63 51 51 51 53 59 47 49 46 51 46 35 34
40 39 37 39 41 40 22 39 38 22 19 38 43 25 38 43 51 53 54 55 56 57 54 56 56 59 60 61 56 60 58 60 61 57 38 45 54 45 48 57 57 50 45 53 47 43 41 26 33
40 38 38 38 39 44 29 26 23 33 29 40 48 48 46 41 42 51 54 46 59 52 56 60 50 54 57 58 60 59 60 60 59 49 52 52 47 53 48 51 51 47 50 48 46 19 44 35 34
44 44 38 41 40 12 30 42 28 43 47 40 35 54 39 54 53 51 52 55 61 57 67 67 65 64 65 61 59 61 59 58 60 57 49 55 60 54 56 63 64 62 62 44 54 25 46 29 33
44 45 31 41 37 49 31 32 26 44 29 41 42 50 52 51 57 55 59 61 66 68 67 67 64 63 59 60 64 59 62 62 64 57 61 62 62 63 45 58 53 52 62 54 53 49 38 38 35
44 24 28 20 39 31 50 48 36 46 47 37 46 40 56 56 59 59 63 65 65 69 70 62 67 57 66 67 63 58 59 60 63 67 62 65 58 57 56 59 55 55 56 41 46 56 57 51 34
46 48 31 28 35 45 45 49 41 33 48 43 51 51 53 56 57 61 64 67 69 70 71 69 68 70 58 65 60 66 63 61 67 68 68 48 57 56 57 63 52 56 49 64 54 62 64 56 51
47 47 45 41 29 47 32 48 49 46 48 42 56 58 59 59 57 56 57 61 69 76 77 72 67 60 65 58 63 66 67 68 68 69 58 51 47 63 65 68 47 54 47 48 41 55 39 38 46
53 36 52 35 27 46 45 55 38 49 45 61 58 60 61 63 61 65 62 62 60 69 80 79 71 68 65 65 65 66 67 74 69 66 59 52 52 49 62 65 65 65 53 33 50 26 26 47 32
55 43 45 41 33 37 43 49 51 45 56 55 63 61 63 66 67 67 67 68 67 69 72 76 64 65 71 68 62 67 72 75 73 68 62 52 53 45 54 58 65 66 44 44 29 30 34 51 65
46 52 46 45 31 48 52 52 50 51 61 60 61 64 64 67 68 73 68 69 66 70 75 71 68 67 60 72 66 72 78 82 80 72 68 63 58 64 61 56 63 64 33 31 35 47 59 61 70
57 37 58 52 50 57 57 49 47 54 54 45 59 64 72 69 71 80 75 71 70 71 74 75 74 66 71 69 69 72 77 77 78 80 71 65 63 73 71 64 41 37 37 34 44 50 57 61 73
56 32 24 59 47 46 48 38 54 48 65 57 69 65 68 72 77 80 79 81 76 77 79 74 70 70 70 71 74 80 79 85 86 83 78 71 73 75 65 66 62 38 42 39 48 62 60 68 63
66 64 54 58 52 57 59 60 48 56 62 69 72 71 65 67 75 82 77 83 81 82 84 81 73 66 75 79 77 82 84 86 88 84 72 73 80 80 73 67 42 45 45 47 52 59 60 67 68
37 62 58 63 70 46 51 63 53 54 61 66 70 78 80 72 82 84 82 84 83 85 80 84 66 77 81 82 81 84 88 92 88 88 71 50 77 36 83 56 46 44 42 50 51 58 60 56 68
57 63 61 71 73 67 54 58 69 63 58 69 72 78 75 76 84 87 80 86 87 79 78 67 80 78 81 83 85 87 93 89 88 86 72 67 86 86 85 74 47 47 45 40 41 63 66 67 72
71 64 64 67 57 61 50 59 72 76 68 67 70 75 82 84 87 88 86 86 87 87 79 81 81 82 85 86 90 90 91 90 90 78 74 82 89 90 90 50 45 41 42 42 47 52 51 69 63
69 43 45 77 66 57 64 61 63 74 74 80 82 88 76 85 90 89 90 90 90 82 78 81 83 85 87 90 90 90 92 94 89 79 82 81 86 93 93 49 50 48 47 51 52 55 58 68 65
71 67 64 69 45 73 62 63 78 81 72 73 79 91 88 90 90 88 91 90 91 88 81 83 87 88 89 90 91 94 94 95 84 81 81 87 91 95 75 58 51 52 55 51 54 59 65 71 73
71 79 77 70 82 60 73 80 15 73 76 80 86 43 89 92 88 89 90 92 91 90 85 88 89 89 90 91 94 94 96 94 81 79 81 89 94 94 85 69 65 65 66 55 60 65 64 69 74
67 68 86 80 61 68 85 73 74 80 89 89 90 91 93 91 91 89 92 90 92 89 84 85 89 90 93 94 94 100 98 88 93 81 92 88 94 98 83 78 76 74 74 70 73 74 74 74 76
89 61 86 63 77 62 73 72 84 88 84 81 91 92 93 94 93 89 88 91 89 85 86 90 89 92 92 97 98 100 97 95 89 91 87 85 85 99 91 86 86 84 81 82 85 84 84 83 84
96 61 71 74 62 81 71 89 88 87 93 93 92 95 95 93 92 92 89 86 87 82 86 89 91 92 94 100 101 98 94 95 87 87 87 96 89 100 101 93 95 88 87 89 91 91 88 89 82
91 98 105 96 68 71 90 91 93 97 99 97 95 94 94 93 94 89 90 82 86 88 87 89 92 96 100 102 98 96 94 91 87 96 98 92 100 103 107 101 101 94 96 99 95 94 91 89 84
98 90 83 86 88 100 90 95 99 97 93 90 94 94 95 95 87 84 87 87 88 89 91 92 96 100 101 100 95 92 94 90 92 92 90 99 103 106 109 109 103 99 103 102 102 100 94 89 85
81 108 108 99 94 99 96 91 90 86 84 86 87 90 88 92 86 85 85 89 90 92 93 95 97 99 95 95 93 92 97 96 97 91 95 99 111 100 108 118 102 104 112 106 102 100 96 90 87
104 104 105 100 97 89 91 86 89 92 88 86 87 88 89 87 88 86 87 91 93 95 96 97 95 87 94 91 94 97 91 90 91 99 96 115 114 100 123 116 117 114 113 58 103 103 98 92 90
Wind_Direction
297 309 312 309 311 315 316 317 316 313 313 317 332 322 338 332 323 315 325 324 333 335 327 311 329 325 329 337 329 336 328 331 326 326 327 323 320 319 318 317 319 306 315 315 307 305 313 313 321
302 305 304 309 300 313 310 311 315 319 330 324 331 323 327 320 310 322 325 342 337 334 335 332 335 335 332 332 334 332 331 328 328 329 325 322 321 319 317 319 319 320 317 310 309 308 306 318 329
295 295 293 295 300 305 305 309 311 318 309 330 325 323 324 308 315 327 334 340 336 332 333 333 331 324 328 329 329 326 328 326 326 324 321 318 317 313 313 315 316 315 305 316 310 309 316 318 331
300 293 293 297 300 302 304 307 314 308 313 313 327 322 324 326 331 325 336 336 331 330 320 325 325 324 323 327 326 327 323 323 322 323 322 318 318 309 305 307 307 314 305 312 304 306 319 323 340
295 291 294 298 296 300 288 306 312 315 309 300 317 320 311 323 319 332 332 334 329 329 326 324 325 326 326 325 325 325 322 322 321 322 324 312 311 320 301 313 317 316 302 308 304 310 307 326 311
290 293 293 301 302 300 305 303 301 312 323 310 311 324 323 316 311 330 332 318 329 329 328 329 326 328 330 326 322 322 319 320 315 315 313 322 311 306 305 305 310 304 309 306 301 283 313 320 323
289 289 291 293 294 277 309 305 299 316 318 316 308 319 315 328 328 329 328 327 330 323 332 330 327 326 325 325 321 317 318 330 337 333 310 309 314 321 307 316 318 313 315 310 305 301 308 299 313
286 288 285 287 294 299 287 304 297 312 318 319 322 320 323 324 325 327 330 329 332 329 327 325 327 326 320 319 318 322 331 312 331 317 316 313 311 314 313 313 311 308 320 306 318 301 261 315 316
283 277 272 290 292 294 300 302 297 308 312 297 315 315 319 325 326 328 330 330 328 325 324 325 327 323 319 316 321 324 323 326 319 320 317 315 311 312 309 321 315 310 318 304 311 316 321 321 308
283 282 273 289 288 291 296 298 308 305 311 306 310 316 320 322 323 326 329 325 325 321 318 320 324 321 320 319 321 317 323 319 326 320 317 321 308 314 306 309 310 313 307 315 305 310 310 304 301
279 282 285 284 287 289 290 291 304 305 309 313 315 320 320 320 323 319 320 324 323 321 319 319 325 325 319 326 325 330 326 324 321 320 320 328 306 308 306 305 330 320 306 300 296 302 316 299 297
275 266 280 279 298 292 294 298 296 302 314 302 308 315 319 320 322 321 322 321 321 317 315 319 321 321 324 332 326 321 324 326 316 329 332 328 321 307 302 309 314 312 322 297 304 272 298 302 263
275 281 279 286 286 287 295 296 300 304 304 312 307 315 316 320 320 318 320 322 322 320 319 316 326 327 324 319 322 322 317 324 329 329 325 324 316 312 305 307 311 316 302 304 257 263 228 288 282
266 271 280 283 287 287 291 293 299 312 302 302 312 312 317 316 317 313 316 317 319 317 316 320 325 322 320 321 325 317 324 327 332 326 328 318 320 309 316 315 312 312 263 252 250 271 288 257 254
273 266 274 278 287 289 285 298 302 305 306 312 310 316 314 318 316 312 313 315 316 315 312 319 317 320 314 324 323 318 321 322 328 330 322 325 320 317 317 316 306 277 266 246 269 234 283 248 245
275 273 277 281 285 291 291 294 293 302 297 305 311 313 312 316 314 310 315 315 316 313 315 320 319 319 324 318 317 321 322 326 330 326 324 322 317 316 323 320 319 291 268 282 238 229 247 246 284
270 273 279 284 280 283 285 284 293 303 301 306 307 308 308 312 309 308 313 312 316 315 314 316 322 321 318 321 317 322 323 324 325 325 326 321 317 318 322 322 306 288 266 261 240 230 262 253 262
263 277 277 275 282 295 299 296 294 294 302 306 309 307 310 315 309 308 311 311 314 313 314 312 319 316 317 319 318 320 322 323 322 323 324 318 321 321 321 313 306 297 279 261 258 240 262 273 263
269 277 277 279 282 286 293 302 310 300 301 301 299 300 306 310 308 305 311 309 310 313 314 315 315 317 317 318 319 319 320 320 320 320 323 318 317 318 322 323 309 297 286 278 292 251 252 258 266
275 276 274 278 283 289 292 300 297 301 303 303 304 304 306 306 303 305 307 307 309 310 312 313 315 316 316 317 317 316 318 316 319 323 322 316 317 319 324 319 311 302 289 294 282 275 293 261 266
269 265 280 277 285 285 284 286 294 296 303 302 304 300 306 303 301 305 305 306 307 312 312 313 314 312 314 315 315 314 315 317 318 319 319 318 319 319 321 319 314 307 296 294 288 285 287 276 294
271 273 276 281 298 282 288 291 293 292 298 300 300 296 298 298 300 302 303 304 305 309 311 311 311 312 313 313 313 316 315 316 319 320 320 318 317 317 330 326 315 306 303 289 284 277 278 278 279
272 272 275 279 278 291 291 288 302 295 294 297 296 298 298 299 301 300 300 302 305 308 309 307 308 310 310 311 315 314 314 316 320 320 318 315 315 318 330 329 319 311 307 304 291 290 287 295 279
270 275 275 276 291 289 285 288 296 293 291 290 293 293 296 298 298 299 300 303 305 307 306 306 308 309 309 312 312 313 313 316 314 316 314 313 313 316 324 319 323 316 306 310 315 305 307 304 302
269 281 274 278 283 291 289 294 289 288 294 297 292 294 294 296 297 299 301 302 303 304 304 304 306 307 307 310 310 312 312 313 312 312 314 312 315 312 326 322 323 325 322 307 321 318 312 310 308
270 280 279 277 288 286 284 286 286 292 291 293 293 291 292 293 295 296 298 299 300 302 302 304 306 306 306 306 308 309 312 311 317 313 314 316 315 326 326 320 327 324 322 319 322 318 315 311 307
271 273 273 277 280 285 282 286 288 287 286 286 288 289 290 292 293 296 295 298 298 300 304 304 304 304 304 305 307 309 309 311 312 310 312 322 323 327 328 323 328 323 323 324 320 317 316 313 313
270 273 275 278 278 275 283 281 281 281 282 284 286 287 289 290 293 294 296 298 299 300 299 301 302 302 303 304 306 309 309 313 312 311 315 324 324 325 328 325 327 322 325 322 321 318 315 315 314
274 267 272 277 280 278 278 279 277 279 281 282 283 284 286 288 293 295 297 297 296 297 298 299 299 301 302 303 306 308 308 315 309 312 319 320 325 321 325 327 322 319 324 322 319 317 315 315 313
262 265 269 273 274 282 276 278 278 281 282 283 283 283 286 290 290 294 293 293 294 296 298 298 300 300 300 301 306 305 315 310 310 323 318 323 323 317 327 324 325 323 324 306 317 315 315 315 312